GW3095 Weather Reports


Display with metric or nautical units.
time (UTC)temp
F
wind
direction
speed
MPH
gust
MPH
rain 1hr
in
rain 24hr
in
rain mn
in
humidity
%
barometer
mb
20260505114005 57 51 0.0 1.0 0.00 0.00 0.00 81 1012.0
20260505112005 57 51 0.0 1.0 0.00 0.00 0.00 81 1011.6
20260505111006 56 51 0.0 1.0 0.00 0.00 0.00 81 1011.6
20260505102005 56 51 0.0 1.0 0.00 0.00 0.00 80 1011.0
20260505101005 57 51 0.0 1.0 0.00 0.00 0.00 80 1011.0
20260505100005 57 51 0.0 1.0 0.00 0.00 0.00 80 1010.9
20260505095005 57 51 0.0 1.0 0.00 0.00 0.00 80 1011.0
20260505094005 57 51 0.0 1.0 0.00 0.00 0.00 79 1011.0
20260505093005 58 51 0.0 1.0 0.00 0.00 0.00 80 1010.9
20260505092005 58 51 0.0 1.0 0.00 0.00 0.00 80 1010.8
20260505091005 58 51 0.0 1.0 0.00 0.00 0.00 79 1011.0
20260505085005 58 51 0.0 1.0 0.00 0.00 0.00 80 1011.0
20260505084005 58 51 0.0 1.0 0.00 0.00 0.00 79 1010.8
20260505083005 58 51 0.0 1.0 0.00 0.00 0.00 79 1010.6
20260505082005 58 51 0.0 1.0 0.00 0.00 0.00 79 1010.5
20260505081005 58 51 0.0 1.0 0.00 0.00 0.00 80 1010.5
20260505075005 58 51 0.0 1.0 0.00 0.00 0.00 76 1010.7
20260505074005 59 51 0.0 1.0 0.00 0.00 0.00 75 1010.7
20260505073005 59 51 0.0 1.0 0.00 0.00 0.00 74 1010.7
20260505072005 60 51 0.0 1.0 0.00 0.00 0.00 74 1010.9
20260505070005 61 51 0.0 1.0 0.00 0.00 0.00 74 1011.2
20260505065005 61 51 0.0 1.0 0.00 0.00 0.00 74 1011.2
20260505064005 62 51 0.0 1.0 0.00 0.00 0.00 74 1011.3
20260505061005 62 152 0.0 1.0 0.00 0.00 0.00 71 1011.5
20260505060005 62 5 0.0 1.0 0.00 0.00 0.00 73 1011.6
20260505054005 63 5 0.0 1.0 0.00 0.00 0.00 71 1011.6
20260505051005 64 5 0.0 1.0 0.00 0.00 0.00 67 1011.5
20260505040006 67 5 1.0 1.0 0.00 0.00 0.00 61 1011.1
20260505034005 66 32 0.0 1.0 0.00 0.00 0.00 62 1011.1
20260505033005 65 35 1.0 1.0 0.00 0.00 0.00 65 1011.2
20260505032010 65 9 0.0 1.0 0.00 0.00 0.00 68 1011.1
20260505031005 65 10 0.0 1.0 0.00 0.00 0.00 69 1011.2
20260505030006 64 14 0.0 1.0 0.00 0.00 0.00 67 1011.2
20260505025005 64 14 0.0 1.0 0.00 0.00 0.00 69 1011.3
20260505023005 65 14 0.0 1.0 0.00 0.00 0.00 69 1011.1
20260505022005 65 14 0.0 1.0 0.00 0.00 0.00 69 1011.2
20260505021005 66 14 0.0 1.0 0.00 0.00 0.00 68 1011.2
20260505020005 66 14 0.0 1.0 0.00 0.00 0.00 70 1011.2
20260505015005 67 14 0.0 1.0 0.00 0.00 0.00 68 1011.1
20260505014004 68 14 0.0 1.0 0.00 0.00 0.00 67 1010.9
20260505013005 68 21 0.0 1.0 0.00 0.00 0.00 66 1010.9
20260505012005 69 21 0.0 1.0 0.00 0.00 0.00 66 1011.0
20260505011005 69 21 0.0 1.0 0.00 0.00 0.00 64 1010.9
20260505010005 70 30 0.0 1.0 0.00 0.00 0.00 61 1010.8
20260505005005 70 30 0.0 1.0 0.00 0.00 0.00 63 1010.8
20260505004005 71 30 0.0 1.0 0.00 0.00 0.00 60 1010.7
20260505003005 72 30 0.0 1.0 0.00 0.00 0.00 60 1010.7
20260505002005 73 30 0.0 1.0 0.00 0.00 0.00 57 1010.6
20260505001005 73 30 0.0 1.0 0.00 0.00 0.00 55 1010.6
20260505000005 74 30 1.0 1.0 0.00 0.00 0.00 53 1010.6
20260504235005 75 30 1.0 1.0 0.00 0.00 0.00 53 1010.7
20260504234005 75 42 0.0 1.0 0.00 0.00 0.00 52 1010.7
20260504233004 76 67 1.0 1.0 0.00 0.00 0.00 50 1010.7
20260504232004 76 70 1.0 1.0 0.00 0.00 0.00 48 1010.7
20260504231005 76 5 1.0 1.0 0.00 0.00 0.00 47 1010.7
20260504230006 76 5 2.0 1.0 0.00 0.00 0.00 48 1010.6
20260504225004 77 88 2.0 1.0 0.00 0.00 0.00 49 1010.6
20260504224004 77 87 1.0 1.0 0.00 0.00 0.00 49 1010.6
20260504221004 78 350 2.0 1.0 0.00 0.00 0.00 47 1010.7
20260504220005 78 112 2.0 1.0 0.00 0.00 0.00 45 1010.8
20260504215004 78 96 1.0 1.0 0.00 0.00 0.00 44 1010.5
20260504213004 78 87 3.0 1.0 0.00 0.00 0.00 48 1010.5
20260504212005 78 292 1.0 1.0 0.00 0.00 0.00 48 1010.7
20260504211005 79 355 2.0 1.0 0.00 0.00 0.00 47 1010.7
20260504210006 79 26 1.0 1.0 0.00 0.00 0.00 49 1010.8
20260504205004 79 34 0.0 1.0 0.00 0.00 0.00 49 1010.9
20260504204004 79 36 1.0 1.0 0.00 0.00 0.00 46 1010.9
20260504203005 80 40 2.0 1.0 0.00 0.00 0.00 48 1010.9
20260504202004 79 333 5.0 1.0 0.00 0.00 0.00 47 1011.0
20260504201004 79 95 5.0 1.0 0.00 0.00 0.00 47 1011.1
20260504200006 79 350 1.0 1.0 0.00 0.00 0.00 47 1011.2
20260504195005 80 331 3.0 1.0 0.00 0.00 0.00 48 1011.4
20260504193009 80 88 3.0 1.0 0.00 0.00 0.00 46 1011.8
20260504192004 80 338 1.0 1.0 0.00 0.00 0.00 48 1011.9
20260504191005 80 78 1.0 1.0 0.00 0.00 0.00 49 1012.2
20260504190005 80 346 2.0 1.0 0.00 0.00 0.00 51 1012.2
20260504185005 80 346 4.0 1.0 0.00 0.00 0.00 48 1012.4
20260504184004 81 103 1.0 1.0 0.00 0.00 0.00 47 1012.5
20260504183004 80 154 3.0 1.0 0.00 0.00 0.00 52 1012.3
20260504181004 80 5 0.0 1.0 0.00 0.00 0.00 48 1012.7
20260504180006 81 11 1.0 1.0 0.00 0.00 0.00 50 1012.7
20260504175004 80 355 3.0 1.0 0.00 0.00 0.00 54 1012.8
20260504174004 80 40 2.0 1.0 0.00 0.00 0.00 50 1012.9
20260504172005 80 81 0.0 1.0 0.00 0.00 0.00 51 1013.2
20260504171004 79 351 3.0 1.0 0.00 0.00 0.00 54 1013.5
20260504151004 73 101 1.0 1.0 0.00 0.00 0.00 58 1014.6
20260504141005 68 92 1.0 1.0 0.00 0.00 0.00 60 1014.9